Time,TemperatureF,DewpointF,PressureIn,WindDirection,WindDirectionDegrees,WindSpeedMPH,WindSpeedGustMPH,Humidity,HourlyPrecipIn,Conditions,Clouds,dailyrainin,SoftwareType,DateUTC
2013-11-09 00:42:00,54.0,36.0,29.96,SE,128,1.0,-999.0,50,-99.99,,,-99.99,,2013-11-09 07:42:00,
2013-11-09 00:52:00,54.0,37.0,29.96,SE,126,1.0,-999.0,52,-99.99,,,-99.99,,2013-11-09 07:52:00,
2013-11-09 01:52:00,56.0,39.0,29.96,ESE,123,1.0,-999.0,53,-99.99,,,-99.99,,2013-11-09 08:52:00,
2013-11-09 02:11:00,54.0,39.0,29.97,ESE,123,0.0,-999.0,57,-99.99,,,-99.99,,2013-11-09 09:11:00,
2013-11-09 02:21:00,52.0,38.0,29.97,ESE,123,2.0,-999.0,58,-99.99,,,-99.99,,2013-11-09 09:21:00,
2013-11-09 03:12:00,51.0,36.0,29.96,SE,136,4.0,-999.0,56,-99.99,,,-99.99,,2013-11-09 10:12:00,
2013-11-09 03:23:00,50.0,37.0,29.96,SSE,150,6.0,-999.0,60,-99.99,,,-99.99,,2013-11-09 10:23:00,
2013-11-09 04:22:00,50.0,35.0,29.98,SE,132,5.0,-999.0,57,-99.99,,,-99.99,,2013-11-09 11:22:00,
2013-11-09 04:42:00,49.0,34.0,29.98,SE,131,5.0,-999.0,57,-99.99,,,-99.99,,2013-11-09 11:42:00,
2013-11-09 04:52:00,50.0,34.0,29.98,SE,125,6.0,-999.0,53,-99.99,,,-99.99,,2013-11-09 11:52:00,
2013-11-09 05:52:00,50.0,36.0,29.99,SE,126,5.0,-999.0,59,-99.99,,,-99.99,,2013-11-09 12:52:00,
2013-11-09 06:11:00,48.0,35.0,30.00,SE,126,4.0,-999.0,61,-99.99,,,-99.99,,2013-11-09 13:11:00,
2013-11-09 06:21:00,48.0,39.0,30.00,SE,126,5.0,-999.0,70,-99.99,,,-99.99,,2013-11-09 13:21:00,
2013-11-09 06:42:00,48.0,39.0,30.00,ESE,116,7.0,-999.0,71,-99.99,,,-99.99,,2013-11-09 13:42:00,
2013-11-09 07:11:00,46.0,36.0,30.01,ESE,116,6.0,-999.0,68,-99.99,,,-99.99,,2013-11-09 14:11:00,
2013-11-09 08:11:00,48.0,35.0,30.03,SE,137,7.0,-999.0,60,-99.99,,,-99.99,,2013-11-09 15:11:00,
2013-11-09 08:21:00,47.0,35.0,30.04,SE,140,4.0,-999.0,64,-99.99,,,-99.99,,2013-11-09 15:21:00,
2013-11-09 08:53:00,50.0,38.0,30.06,SE,144,4.0,-999.0,63,-99.99,,,-99.99,,2013-11-09 15:53:00,
2013-11-09 09:23:00,55.0,38.0,30.07,SE,140,3.0,-999.0,52,-99.99,,,-99.99,,2013-11-09 16:23:00,
2013-11-09 09:43:00,56.0,37.0,30.07,SE,140,0.0,-999.0,48,-99.99,,,-99.99,,2013-11-09 16:43:00,
2013-11-09 09:52:00,58.0,37.0,30.07,SE,140,1.0,-999.0,46,-99.99,,,-99.99,,2013-11-09 16:52:00,
2013-11-09 10:13:00,60.0,39.0,30.07,SE,140,2.0,-999.0,45,-99.99,,,-99.99,,2013-11-09 17:13:00,
2013-11-09 10:23:00,62.0,37.0,30.07,SE,140,0.0,-999.0,40,-99.99,,,-99.99,,2013-11-09 17:23:00,
2013-11-09 10:43:00,63.0,38.0,30.07,SE,140,0.0,-999.0,40,-99.99,,,-99.99,,2013-11-09 17:43:00,
2013-11-09 10:52:00,65.0,37.0,30.07,SE,140,0.0,-999.0,36,-99.99,,,-99.99,,2013-11-09 17:52:00,
2013-11-09 11:12:00,67.0,40.0,30.06,SE,140,1.0,-999.0,37,-99.99,,,-99.99,,2013-11-09 18:12:00,
2013-11-09 13:12:00,77.0,43.0,30.02,SE,144,0.0,-999.0,30,-99.99,,,-99.99,,2013-11-09 20:12:00,
2013-11-09 13:22:00,79.0,47.0,30.01,SE,144,0.0,-999.0,32,-99.99,,,-99.99,,2013-11-09 20:22:00,
2013-11-09 13:42:00,79.0,41.0,30.01,SE,144,0.0,-999.0,26,-99.99,,,-99.99,,2013-11-09 20:42:00,
2013-11-09 13:52:00,80.0,40.0,30.00,SE,144,0.0,-999.0,24,-99.99,,,-99.99,,2013-11-09 20:52:00,
2013-11-09 14:11:00,81.0,40.0,29.99,SE,144,0.0,-999.0,23,-99.99,,,-99.99,,2013-11-09 21:11:00,
2013-11-09 14:22:00,81.0,41.0,29.98,SE,146,0.0,-999.0,24,-99.99,,,-99.99,,2013-11-09 21:22:00,
2013-11-09 14:44:00,81.0,42.0,29.98,SE,146,0.0,-999.0,25,-99.99,,,-99.99,,2013-11-09 21:44:00,
2013-11-09 14:53:00,82.0,33.0,29.98,SE,146,0.0,-999.0,17,-99.99,,,-99.99,,2013-11-09 21:53:00,
2013-11-09 15:13:00,83.0,25.0,29.98,SE,146,0.0,-999.0,12,-99.99,,,-99.99,,2013-11-09 22:13:00,
2013-11-09 15:24:00,83.0,34.0,29.98,SSE,167,1.0,-999.0,17,-99.99,,,-99.99,,2013-11-09 22:24:00,
2013-11-09 15:43:00,83.0,34.0,29.97,South,178,1.0,-999.0,17,-99.99,,,-99.99,,2013-11-09 22:43:00,
2013-11-09 15:54:00,83.0,35.0,29.97,South,189,0.0,-999.0,18,-99.99,,,-99.99,,2013-11-09 22:54:00,
2013-11-09 16:42:00,82.0,36.0,29.96,South,189,0.0,-999.0,19,-99.99,,,-99.99,,2013-11-09 23:42:00,
2013-11-09 16:53:00,82.0,36.0,29.96,South,189,0.0,-999.0,19,-99.99,,,-99.99,,2013-11-09 23:53:00,
2013-11-09 17:12:00,81.0,39.0,29.96,South,189,0.0,-999.0,22,-99.99,,,-99.99,,2013-11-10 00:12:00,
2013-11-09 17:52:00,79.0,36.0,29.96,South,189,0.0,-999.0,21,-99.99,,,-99.99,,2013-11-10 00:52:00,
2013-11-09 18:12:00,78.0,35.0,29.96,SSW,193,2.0,-999.0,21,-99.99,,,-99.99,,2013-11-10 01:12:00,
2013-11-09 21:02:00,-999.0,-99.9,30.01,SSW,207,0.0,-999.0,-999,-99.99,,,-99.99,,2013-11-10 04:02:00,